Theta_e
315 317 318 317 335 335 334 334 335 336 337 336 335 332 327 324 322 322 323 322 323 323 323 323 326 330 330 330 331 332 332 332
316 316 317 316 316 328 334 336 336 336 338 338 338 337 336 333 328 326 326 324 327 326 325 325 325 328 330 330 330 330 330 330
315 315 316 318 317 316 320 331 333 330 331 329 334 336 337 337 334 332 330 329 330 327 327 326 323 326 330 331 329 328 328 327
317 318 318 317 317 317 316 317 317 320 325 329 337 339 339 339 338 336 335 333 332 330 328 328 327 325 328 330 329 328 327 327
312 313 316 321 321 321 320 318 317 317 323 327 332 334 335 333 336 338 337 336 333 333 330 330 328 327 325 328 329 327 327 327
306 309 309 318 322 325 326 324 321 321 330 336 329 332 333 332 334 334 336 334 335 336 334 332 331 330 327 325 329 330 326 327
302 306 309 313 317 320 327 330 332 333 333 334 337 337 336 335 335 334 336 335 333 333 333 332 332 331 329 326 329 327 327 326
300 302 303 309 312 317 322 323 328 332 332 333 335 337 339 334 335 335 335 335 333 330 330 331 331 332 331 326 327 327 327 325
298 299 300 302 307 313 317 319 321 324 328 331 333 334 336 338 333 335 335 334 332 328 328 331 330 331 332 329 325 327 326 326
297 298 299 300 304 309 313 317 320 321 322 324 326 330 333 336 336 336 333 332 330 325 326 330 328 330 332 331 328 327 327 326
297 297 298 299 301 304 310 315 317 319 322 322 324 325 326 329 334 334 333 333 330 325 329 329 329 331 331 332 330 328 327 326
295 297 297 299 300 302 306 311 315 317 320 321 323 325 326 326 327 328 332 333 331 330 330 330 330 330 330 332 331 328 327 325
294 296 298 299 300 302 304 307 311 313 316 318 322 323 323 327 330 330 331 332 331 331 330 330 330 329 329 330 331 328 327 324
294 293 295 296 299 301 302 303 305 309 312 315 317 321 323 324 326 326 328 331 330 328 328 327 327 328 327 329 330 329 326 324
293 294 294 297 297 300 301 302 302 304 306 309 314 315 317 321 323 325 326 327 328 329 328 326 326 327 327 328 328 326 326 323
290 291 293 294 296 297 298 299 301 302 302 304 305 308 311 314 317 322 324 325 326 327 328 329 329 326 326 327 328 327 326 323
289 291 292 293 294 293 297 298 299 300 301 301 301 303 305 308 310 314 317 320 324 325 325 325 326 326 327 328 325 324 322 321
288 289 290 291 292 292 293 296 298 299 299 300 301 301 301 302 305 308 311 312 314 316 321 323 323 322 326 325 325 323 322 320
287 288 290 290 290 292 292 293 296 297 298 299 299 299 300 301 301 302 304 305 307 308 310 307 312 313 323 324 324 322 321 321
Wind_Speed
36 35 31 33 50 50 45 43 39 38 39 37 33 35 35 34 34 32 32 31 28 27 25 24 25 27 28 28 27 27 27 25
32 35 33 30 31 44 49 50 45 45 43 43 41 40 37 35 35 34 32 32 30 29 27 25 26 29 29 27 25 26 25 23
17 14 21 27 33 33 36 41 42 43 44 41 42 42 41 39 36 35 35 32 30 31 29 28 26 29 30 28 27 26 26 24
7 8 10 18 19 24 28 34 38 40 40 41 42 41 41 42 40 40 36 32 30 32 32 30 28 28 31 29 29 28 27 27
13 10 7 7 3 10 19 25 32 39 40 41 40 40 40 41 43 44 37 35 30 33 32 32 31 30 32 31 30 30 30 30
15 11 10 6 7 6 12 18 27 33 34 32 36 37 38 37 36 36 40 41 39 32 31 32 32 32 32 32 32 34 30 32
19 17 16 17 13 12 12 11 15 20 26 27 30 30 33 35 36 34 36 39 38 34 32 33 33 34 34 34 33 32 31 30
26 23 21 19 16 16 14 9 9 15 20 25 28 29 30 33 35 36 36 35 30 30 35 36 36 38 36 34 35 33 31 30
26 27 26 22 20 17 15 9 7 6 10 19 25 29 31 33 35 38 37 34 34 35 39 39 40 40 38 36 34 34 32 33
26 29 31 26 24 21 16 13 10 5 1 5 12 22 32 36 36 37 38 36 35 33 35 33 39 42 40 37 35 35 35 33
28 34 35 33 27 23 20 18 16 11 5 7 10 15 20 28 39 41 40 39 37 43 38 35 36 38 38 36 36 36 35 34
31 35 36 39 36 32 27 23 18 14 10 7 9 14 17 23 27 33 38 39 37 37 37 37 36 34 34 37 38 36 37 34
30 37 42 41 42 42 38 30 22 18 16 12 10 10 11 13 15 20 26 30 35 38 39 36 34 32 33 36 39 36 37 34
36 34 39 41 40 42 43 40 35 25 20 17 15 13 9 9 11 15 18 20 24 29 33 33 34 34 35 35 35 37 36 31
37 42 40 42 42 41 40 40 40 35 29 24 20 18 16 12 8 12 14 17 18 23 26 31 32 34 36 34 32 37 34 29
34 36 36 36 39 38 35 35 36 38 38 35 30 24 20 16 13 6 8 14 18 21 22 24 29 33 35 31 27 33 31 28
29 32 33 35 34 37 34 34 34 34 36 39 37 35 30 25 20 16 10 7 10 15 19 25 27 32 35 31 27 27 26 28
29 30 31 32 29 28 33 32 30 31 33 34 34 36 36 35 30 25 22 18 11 7 10 17 21 30 38 26 26 25 26 26
27 26 26 26 25 24 26 31 31 31 32 31 32 33 33 33 33 33 31 27 23 19 10 13 7 12 25 26 29 28 26 26
Wind_Direction
265 263 268 243 234 233 237 239 238 236 236 234 235 239 237 237 235 233 231 231 230 230 230 229 228 229 230 231 233 237 243 246
268 256 257 242 231 229 235 240 240 241 237 237 234 236 238 236 235 233 231 229 230 231 232 232 230 230 232 233 234 239 245 248
252 231 237 238 235 233 232 237 237 238 238 238 238 238 238 237 237 233 230 228 233 233 237 235 235 232 231 229 232 236 241 242
171 139 181 209 220 227 229 232 234 240 242 240 238 237 239 237 236 236 230 227 233 236 238 238 238 238 236 231 230 232 233 236
145 138 102 127 200 223 228 226 224 227 233 237 238 238 238 239 239 238 234 231 240 235 238 239 238 239 241 232 229 229 232 236
73 87 78 159 157 179 206 212 219 223 222 228 236 241 245 250 250 248 236 233 235 232 240 242 241 243 243 241 229 227 232 237
50 63 72 88 108 117 155 180 203 210 214 217 223 237 244 245 248 244 241 239 237 239 247 248 247 246 245 244 239 234 236 240
40 48 50 61 67 81 106 115 153 189 204 207 215 225 232 240 246 250 248 241 236 243 256 249 247 245 244 243 241 239 236 236
40 41 44 47 53 63 81 86 97 129 191 212 218 223 231 235 241 244 245 247 248 243 239 250 252 251 244 241 241 239 236 237
39 45 46 45 47 52 57 62 60 52 342 240 229 234 235 238 241 247 246 243 250 240 223 243 252 252 247 240 238 238 236 239
40 45 46 47 47 48 52 54 44 34 17 313 284 264 248 242 243 244 245 242 241 235 245 243 250 250 249 242 239 238 238 238
38 46 46 50 49 47 47 47 41 33 23 10 308 289 275 262 253 248 247 247 246 246 248 249 253 252 249 244 242 237 237 239
23 43 47 47 48 45 43 42 39 33 26 14 0 323 309 293 259 244 255 255 253 252 252 254 255 255 253 247 240 234 233 233
35 36 44 42 46 47 44 40 39 30 24 26 19 11 350 307 275 260 255 261 262 258 254 253 252 252 252 250 238 232 232 232
32 37 38 43 41 43 42 42 41 38 32 30 31 23 14 5 329 272 262 259 268 267 262 252 250 249 251 249 237 230 227 232
26 32 36 40 42 40 41 43 43 42 41 40 35 35 27 23 23 340 291 264 256 255 262 265 251 252 251 249 232 228 227 230
25 32 32 34 35 35 34 38 39 41 42 42 42 39 37 36 34 27 356 325 276 261 255 237 229 244 242 233 230 221 225 235
27 29 30 32 33 34 32 34 37 38 40 40 39 39 39 40 41 44 39 27 357 319 242 240 224 228 226 213 215 220 228 234
26 27 30 31 30 34 35 34 36 36 36 34 33 36 39 39 40 41 44 47 45 38 14 350 256 247 220 213 213 222 228 235